STARLINK-35232

Last updated on Mon Oct 06 2025 00:02:06 GMT+0000 (Coordinated Universal Time)

1 65518U 25198AC 25278.50001156 .00013821 00000+0 25630-3 0 9995 2 65518 53.1589 280.4097 0001195 77.3714 118.8897 15.49287162 5544

Satellite not in orbit

STARLINK-35232